Back to catalog

IRIDE-MS1-EAG2-3

AliveScienceSSO
NORAD 66697·PAYLOAD·🇮🇹 Italy

Launched Nov 28, 2025 from Vandenberg Space Force Base

Loading…

Next Passes (next 24 hours)

TLE

FreshSource: Space-Track

Epoch: Sep 14, 2026, 03:23 UTC

1 66697U 25276AH  26257.14158639  .00005940  00000-0  26400-3 0  9998
2 66697  97.4109 329.5772 0002431  47.3901 312.7540 15.21890599 43968

Track IRIDE-MS1-EAG2-3 in real time with AllMySat

Download on the App Store